Showing default

MIMIR 1, 68490

Orbit data source: Space-Track

MIMIR 1, 68490 is a payload satellite owned by Space Norway (NO) in SSO that was launched on Mon, 30 Mar 2026 UTC via an FALCON 9 launch vehicle from the Air Force Western Test Range (AFWTR). Payload-class satellites include a variety of spacecraft equipped with specific instruments for various scientific and technological missions. These include communications satellites like Starlink; space stations such as the ISS; scientific satellites like the Hubble; Earth observation satellites from companies like Planet Labs, Umbra, and HawkEye 360; GPS; miniature CubeSats for education and research; and military/defense satellites.

Loading next visibility...
Identifier
68490, 2026-067CC
Orbit
SSO
Country
Flag of NONO / NOR
Related business
Manufacturer
OHB-SE
Mission
Operational Commercial Communications
Bus & Motor
MIMIR, Unknown motor
Mass
93 kg wet, 93 kg dry
Launch date (UTC)
2026-03-30 (6 months ago)
Launch vehicle
FALCON 9
Launch site
Air Force Western Test Range (AFWTR)
Object type
Payload
Rocket body
Debris
Shape & HBR
Box + 2 Pan + 1 Ant, 1.1 m
Radar Cross Section
0.940 m², Large (>1 m²)

Expand to show TLE details & history
Last TLE update: 9 hours ago

TLE from 9 hours ago
0 MIMIR 1
1 68490U 26067CC  26263.44157940  .00001339  00000-0  14075-3 0  9997
2 68490  97.7718 220.1189 0003646  79.1396 281.0233 14.91079388 25911
Epoch: 2026-09-20T10:35Z
TLE epoch observation values (Epoch: 2026-09-20T10:35:52.460Z)
Latitude
0.00004°
Longitude
61.8146°
Altitude
597.124 km
Speed
7.561 km/s
True Right ascension
14h 40m 28s
True Declination
0° 00' 00"
Sunlit
Object was in daylight at epoch
Visualization orbit readout
Latitude
Unknown
Longitude
Unknown
Altitude
Unknown
Speed
Unknown
Apparent Right ascension
Unknown
Apparent Declination
Unknown
Sunlit
N/A
Visualization observer readout
Local Sidereal Time
12:54:20
Azimuth
Unknown
Elevation
Unknown
Doppler factor
Unknown
Orbital elements
Apogee altitude
594.13 km
Perigee altitude
589.048 km
Semi-major axis
6,969.726 km
Eccentricity
0.00036
Inclination
97.7718°
RAAN
220.1189°
Arg. of periapsis
79.1396°
True anomaly
280.98229°
Mean anomaly
281.0233°
Eccentric anomaly
281.00279°
Mean motion
3.73009 °/min
Orbital period
96.51 mins
BSTAR
0.00014075
Loading maneuver chart data...
Computing Atmospheric mass density...
Loading historical data...
Loading historical data...
Loading historical data...
Loading historical data...
Loading historical data...
Loading historical data...
Loading historical data...

Documentation

Showing up to 5 results
|